THOR ABLESTAR DEB, 543

Orbit data source: Space-Track

THOR ABLESTAR DEB, 543 is space debris in LEO originally from a launch on Thu, 29 Jun 1961 UTC launched from the Air Force Eastern Test Range (AFETR). Debris objects in space refer to the collection of defunct objects orbiting the Earth. Examples of debris include non-operational satellites, rocket bodies, and fragments generated from explosions, collisions, or faulty payload assembly.

Loading next visibility...
Identifier
543, 1961-015GC
Orbit
LEO
Country
Flag of USUS
Related business
Manufacturer
Unknown
Mission
Spacecraft
Bus & Motor
Unknown
Mass
Unknown
Launch date (UTC)
1961-06-29 (64 years ago)
Launch vehicle
Unknown
Launch site
Air Force Eastern Test Range (AFETR)
Object type
Payload
Rocket body
Debris
Shape & HBR
Unknown
Radar Cross Section
Small (<0.1 m²)

Expand to show TLE details & history
Last TLE update: 1 day ago

TLE from 1 day ago
0 THOR ABLESTAR DEB
1 00543U 61015GC  25260.98375644  .00000155  00000-0  25701-3 0  9995
2 00543  67.0305 219.0879 0064137  32.3631  28.0581 13.69097010199436
Epoch: 2025-09-17T23:36Z
TLE epoch observation values (Epoch: 2025-09-17T23:36:36.556Z)
Latitude
53.57896°
Longitude
-97.36439°
Altitude
969.057 km
Speed
7.393 km/s
True Right ascension
16h 55m 45s
True Declination
53° 25' 09"
Sunlit
Object was in daylight at epoch
Visualization orbit readout
Latitude
Unknown
Longitude
Unknown
Altitude
Unknown
Speed
Unknown
Apparent Right ascension
Unknown
Apparent Declination
Unknown
Sunlit
N/A
Visualization observer readout
Local Sidereal Time
19:17:49
Azimuth
Unknown
Elevation
Unknown
Doppler factor
Unknown
Orbital elements
Apogee altitude
1,048.528 km
Perigee altitude
953.87 km
Semi-major axis
7,379.336 km
Eccentricity
0.00641
Inclination
67.0305°
RAAN
219.0879°
Arg. of periapsis
32.3631°
True anomaly
28.40626°
Mean anomaly
28.0581°
Eccentric anomaly
28.23193°
Mean motion
3.42387 °/min
Orbital period
105.14 mins
BSTAR
0.00025701
Loading maneuver chart data...
Computing Atmospheric mass density...

Documentation

Showing up to 5 results
|